{"data":{"norad_id":52288,"epoch":"2026-05-25T04:55:47.229600Z","epoch_age_seconds":54413,"freshness":"FRESH","line1":"1 52288U 22041AD  26145.20540775  .00000836  00000+0  70614-4 0  9990","line2":"2 52288  53.2144 115.6297 0001564  80.0582 280.0587 15.08849235226056","mean_motion":15.08849235,"eccentricity":0.0001564,"inclination_deg":53.2144,"raan_deg":115.6297,"arg_perigee_deg":80.0582,"mean_anomaly_deg":280.0587,"bstar":7.0614e-5,"rev_number":22605,"period_min":95.43697054663,"perigee_km":538.63320932955,"apogee_km":540.79711348564,"semimajor_km":6917.8521614076,"source":"CELESTRAK","updated_at":"2026-05-25T13:38:17.085366Z"}}